Home   Weather   Emsdetten   Past weeks

Flag for Germany Past Weather in Emsdetten, North Rhine-Westphalia, Germany — Yesterday and Last 2 Weeks

Now
66 °F

Scattered clouds.


Feels Like: 66 °F
Forecast: 55 / 69 °F
Wind: 6 mph from Southwest

Location: Muenster / Osnabrueck

Current Time: Jul 27, 2017 at 9:07:48 pm

Latest Report: Jul 27, 2017 at 8:50 pm


Visibility: N/A

Pressure: 29.71 "Hg

Humidity: 60%

Dew Point: 52 °F

Location of EmsdettenLocation

Past Weather in Emsdetten — Graph

°F

Emsdetten Temperature Yesterday

Maximum temperature yesterday: 73 °F (at 4:50 pm)
Minimum temperature yesterday: 59 °F (at 12:50 am)
Average temperature yesterday: 65 °F

High & Low Weather Summary for the Past Weeks

 TemperatureHumidityPressure
High90 °F (Jul 19, 3:20 pm)100% (Jul 13, 3:50 am)30.21 "Hg (Jul 13, 3:50 am)
Low46 °F (Jul 13, 3:50 am)38% (Jul 19, 5:20 pm)29.68 "Hg (Jul 25, 4:20 pm)
Average65 °F75%29.95 "Hg
* Reported Jul 12 7:20 pm — Jul 27 7:50 pm, Emsdetten. Weather by CustomWeather, © 2017

Note: Actual official high and low records may vary slightly from our data, if they occured in-between our weather recording intervals... More about our weather records

Advertising

Emsdetten Weather History for the Previous 24 Hours

Scroll right to see more
 ConditionsComfort  
Time TempWeatherWind HumidityBarometerVisibility
7:50 pm
Thu, Jul 27
68 °FScattered clouds.12 mph56%29.71 "HgN/A
7:20 pm68 °FScattered clouds.9 mph53%29.71 "HgN/A
6:50 pm70 °FBroken clouds.14 mph50%29.71 "HgN/A
6:20 pm70 °FBroken clouds.9 mph53%29.71 "HgN/A
5:50 pm70 °FBroken clouds.9 mph57%29.71 "HgN/A
5:20 pm70 °FPartly sunny.12 mph57%29.71 "HgN/A
4:50 pm70 °FPartly sunny.12 mph57%29.71 "HgN/A
4:20 pm70 °FPartly sunny.9 mph53%29.71 "HgN/A
3:50 pm70 °FPartly sunny.12 mph53%29.71 "HgN/A
3:20 pm72 °FBroken clouds.12 mph57%29.74 "HgN/A
2:50 pm70 °FBroken clouds.13 mph60%29.74 "HgN/A
2:20 pm72 °FBroken clouds.13 mph57%29.71 "HgN/A
1:50 pm72 °FBroken clouds.13 mph57%29.71 "HgN/A
1:20 pm72 °FBroken clouds.13 mph53%29.71 "HgN/A
12:50 pm72 °FPartly sunny.15 mph53%29.71 "HgN/A
12:20 pm72 °FBroken clouds.15 mph53%29.71 "HgN/A
11:50 am70 °FScattered clouds.16 mph60%29.74 "HgN/A
11:20 am70 °FBroken clouds.10 mph64%29.71 "HgN/A
10:50 am70 °FBroken clouds.13 mph64%29.71 "HgN/A
10:20 am68 °FBroken clouds.13 mph69%29.71 "HgN/A
9:50 am68 °FBroken clouds.14 mph73%29.71 "HgN/A
9:20 am66 °FBroken clouds.13 mph78%29.71 "HgN/A
8:50 am66 °FBroken clouds.10 mph83%29.71 "HgN/A
8:20 am66 °FPartly sunny.8 mph83%29.71 "HgN/A
7:50 am64 °FBroken clouds.9 mph88%29.71 "HgN/A
7:20 am64 °FPartly sunny.6 mph88%29.71 "HgN/A
6:50 am63 °FBroken clouds.7 mph94%29.71 "HgN/A
6:20 am63 °FBroken clouds.7 mph94%29.71 "HgN/A
5:50 am63 °FBroken clouds.7 mph94%29.71 "HgN/A
5:20 am63 °FPartly cloudy.8 mph94%29.71 "HgN/A
4:50 am63 °FPartly cloudy.9 mph94%29.71 "Hg5 mi
4:31 am64 °FPassing clouds.8 mph88%29.71 "Hg2 mi
4:20 am64 °FPassing clouds.8 mph88%29.71 "Hg3 mi
3:50 am64 °FPartly cloudy.7 mph83%29.71 "HgN/A
3:20 am64 °FLight rain. Mostly cloudy.9 mph83%29.74 "Hg5 mi
2:50 am66 °FMostly cloudy.7 mph68%29.74 "HgN/A
2:20 am64 °FOvercast.5 mph73%29.74 "HgN/A
1:50 am64 °FOvercast.6 mph73%29.74 "HgN/A
1:20 am63 °FOvercast.5 mph77%29.74 "HgN/A
12:50 am64 °FPassing clouds.3 mph73%29.74 "HgN/A
12:20 am63 °FClear.5 mph83%29.74 "Hg10 mi
11:50 pm
Wed, Jul 26
61 °FClear.3 mph88%29.77 "Hg10 mi
11:20 pm61 °FClear.3 mph83%29.77 "Hg10 mi
10:50 pm61 °FClear.3 mph88%29.77 "Hg10 mi
10:20 pm64 °FPassing clouds.3 mph78%29.77 "HgN/A
9:50 pm66 °FPassing clouds.5 mph73%29.77 "HgN/A
Weather by CustomWeather, © 2017

See weather overviewHow to use our weather pages